Location: New Mesquite
(33.1168°N, 96.4336°W)
Time: 18:02:50
(UTC+00:00)

CZ-2C R/B - Pass Details

Date: 03 July 2022
Orbit: 784 x 871 km, 98.2° (Epoch: 09 August)

Event Time Altitude Azimuth Distance (km) Brightness Sun altitude
Rises 10:01:03 0° 136° (SE) 3,401 5.9 -14.7°
Reaches altitude 10° 10:03:44 10° 124° (SE) 2,480 5.3 -14.3°
Maximum altitude 10:08:16 27° 69° (ENE) 1,605 5.0 -13.5°
Drops below altitude 10° 10:12:52 10° 13° (NNE) 2,518 6.0 -12.8°
Sets 10:15:36 0° 2° (N) 3,463 6.5 -12.4°
